| time (UTC) | temp F | wind direction | speed knots | gust knots | rain 1hr in | rain 24hr in | rain mn in | humidity % | barometer mb |
| 20260906104503 | 86 | 110 | 7.8 | 0.0 | 0.00 | 0.00 | 0.00 | 42 | 1022.0 |
| 20260906103003 | 86 | 110 | 7.8 | 0.0 | 0.00 | 0.00 | 0.00 | 42 | 1022.0 |
| 20260906101502 | 86 | 90 | 0.9 | 0.0 | 0.00 | 0.00 | 0.00 | 40 | 1022.0 |
| 20260906100004 | 86 | 90 | 0.9 | 0.0 | 0.00 | 0.00 | 0.00 | 40 | 1022.0 |
| 20260906094504 | 84 | 90 | 11.3 | 0.0 | 0.00 | 0.00 | 0.00 | 42 | 1022.0 |
| 20260906093004 | 84 | 90 | 11.3 | 0.0 | 0.00 | 0.00 | 0.00 | 42 | 1022.0 |
| 20260906091503 | 84 | 90 | 10.4 | 0.0 | 0.00 | 0.00 | 0.00 | 42 | 1022.0 |
| 20260906090004 | 84 | 90 | 10.4 | 0.0 | 0.00 | 0.00 | 0.00 | 42 | 1022.0 |
| 20260906083004 | 82 | 80 | 10.4 | 0.0 | 0.00 | 0.00 | 0.00 | 45 | 1022.0 |
| 20260906073003 | 81 | 90 | 2.6 | 0.0 | 0.00 | 0.00 | 0.00 | 57 | 1021.0 |
| 20260906064504 | 72 | 0 | 1.7 | 0.0 | 0.00 | 0.00 | 0.00 | 78 | 1021.0 |
| 20260906063004 | 72 | 0 | 1.7 | 0.0 | 0.00 | 0.00 | 0.00 | 78 | 1021.0 |
| 20260906061503 | 70 | 10 | 4.3 | 0.0 | 0.00 | 0.00 | 0.00 | 77 | 1020.0 |
| 20260906060003 | 70 | 10 | 4.3 | 0.0 | 0.00 | 0.00 | 0.00 | 77 | 1020.0 |
| 20260906054503 | 68 | 350 | 2.6 | 0.0 | 0.00 | 0.00 | 0.00 | 82 | 1020.0 |
| 20260906053003 | 68 | 350 | 2.6 | 0.0 | 0.00 | 0.00 | 0.00 | 82 | 1020.0 |
| 20260906043003 | 70 | 340 | 1.7 | 0.0 | 0.00 | 0.00 | 0.00 | 82 | 1020.0 |
| 20260906041503 | 70 | 0 | 1.7 | 0.0 | 0.00 | 0.00 | 0.00 | 82 | 1020.0 |
| 20260906040004 | 70 | 0 | 1.7 | 0.0 | 0.00 | 0.00 | 0.00 | 82 | 1020.0 |
| 20260906031503 | 72 | 20 | 2.6 | 0.0 | 0.00 | 0.00 | 0.00 | 88 | 1019.0 |
| 20260906011503 | 75 | 100 | 2.6 | 0.0 | 0.00 | 0.00 | 0.00 | 83 | 1019.0 |
| 20260906004503 | 75 | 70 | 2.6 | 0.0 | 0.00 | 0.00 | 0.00 | 83 | 1019.0 |
| 20260906003004 | 75 | 70 | 2.6 | 0.0 | 0.00 | 0.00 | 0.00 | 83 | 1019.0 |
| 20260906000004 | 77 | 0 | 0.9 | 0.0 | 0.00 | 0.00 | 0.00 | 83 | 1019.0 |
| 20260905234504 | 77 | 100 | 2.6 | 0.0 | 0.00 | 0.00 | 0.00 | 83 | 1019.0 |
| 20260905231503 | 79 | 110 | 5.2 | 0.0 | 0.00 | 0.00 | 0.00 | 78 | 1019.0 |
| 20260905230004 | 79 | 110 | 5.2 | 0.0 | 0.00 | 0.00 | 0.00 | 78 | 1019.0 |
| 20260905223004 | 79 | 100 | 5.2 | 0.0 | 0.00 | 0.00 | 0.00 | 78 | 1018.0 |
| 20260905220004 | 79 | 100 | 6.1 | 0.0 | 0.00 | 0.00 | 0.00 | 78 | 1018.0 |
| 20260905211503 | 81 | 90 | 4.3 | 0.0 | 0.00 | 0.00 | 0.00 | 57 | 1017.0 |
| 20260905204503 | 82 | 70 | 4.3 | 0.0 | 0.00 | 0.00 | 0.00 | 54 | 1017.0 |
| 20260905203004 | 82 | 70 | 4.3 | 0.0 | 0.00 | 0.00 | 0.00 | 54 | 1017.0 |
| 20260905200004 | 82 | 60 | 5.2 | 0.0 | 0.00 | 0.00 | 0.00 | 54 | 1016.0 |
| 20260905194503 | 82 | 50 | 1.7 | 0.0 | 0.00 | 0.00 | 0.00 | 51 | 1016.0 |
| 20260905193003 | 82 | 50 | 1.7 | 0.0 | 0.00 | 0.00 | 0.00 | 51 | 1016.0 |
| 20260905191503 | 82 | 0 | 0.9 | 0.0 | 0.00 | 0.00 | 0.00 | 54 | 1016.0 |
| 20260905184503 | 86 | 230 | 0.9 | 0.0 | 0.00 | 0.00 | 0.00 | 42 | 1015.0 |
| 20260905183004 | 86 | 230 | 0.9 | 0.0 | 0.00 | 0.00 | 0.00 | 42 | 1015.0 |
| 20260905181503 | 88 | 220 | 2.6 | 0.0 | 0.00 | 0.00 | 0.00 | 45 | 1015.0 |
| 20260905180004 | 88 | 220 | 2.6 | 0.0 | 0.00 | 0.00 | 0.00 | 45 | 1015.0 |
| 20260905174503 | 91 | 240 | 1.7 | 0.0 | 0.00 | 0.00 | 0.00 | 38 | 1015.0 |
| 20260905173004 | 91 | 240 | 1.7 | 0.0 | 0.00 | 0.00 | 0.00 | 38 | 1015.0 |
| 20260905170004 | 93 | 260 | 4.3 | 0.0 | 0.00 | 0.00 | 0.00 | 34 | 1015.0 |
| 20260905163004 | 91 | 240 | 7.0 | 0.0 | 0.00 | 0.00 | 0.00 | 38 | 1015.0 |
| 20260905160003 | 93 | 270 | 5.2 | 0.0 | 0.00 | 0.00 | 0.00 | 38 | 1015.0 |
| 20260905154503 | 93 | 0 | 2.6 | 0.0 | 0.00 | 0.00 | 0.00 | 38 | 1015.0 |
| 20260905153004 | 93 | 0 | 2.6 | 0.0 | 0.00 | 0.00 | 0.00 | 38 | 1015.0 |
| 20260905150004 | 91 | 190 | 5.2 | 0.0 | 0.00 | 0.00 | 0.00 | 40 | 1015.0 |
| 20260905144503 | 91 | 240 | 7.8 | 0.0 | 0.00 | 0.00 | 0.00 | 40 | 1015.0 |
| 20260905141502 | 91 | 220 | 7.0 | 0.0 | 0.00 | 0.00 | 0.00 | 40 | 1016.0 |
| 20260905140004 | 91 | 220 | 7.0 | 0.0 | 0.00 | 0.00 | 0.00 | 40 | 1016.0 |
| 20260905134503 | 90 | 220 | 5.2 | 0.0 | 0.00 | 0.00 | 0.00 | 43 | 1016.0 |
| 20260905133003 | 90 | 220 | 5.2 | 0.0 | 0.00 | 0.00 | 0.00 | 43 | 1016.0 |
| 20260905131504 | 90 | 240 | 6.1 | 0.0 | 0.00 | 0.00 | 0.00 | 43 | 1016.0 |
| 20260905130004 | 90 | 240 | 6.1 | 0.0 | 0.00 | 0.00 | 0.00 | 43 | 1016.0 |
| 20260905123004 | 88 | 240 | 6.1 | 0.0 | 0.00 | 0.00 | 0.00 | 45 | 1016.0 |
| 20260905121503 | 88 | 240 | 6.1 | 0.0 | 0.00 | 0.00 | 0.00 | 45 | 1017.0 |
| 20260905120004 | 88 | 240 | 6.1 | 0.0 | 0.00 | 0.00 | 0.00 | 45 | 1017.0 |
| 20260905114503 | 86 | 230 | 6.1 | 0.0 | 0.00 | 0.00 | 0.00 | 48 | 1017.0 |